Regional Weather Roundup
Issued by NWS

Home | Current Version | Previous Version | Graphics & Text | Print | Product List | Glossary On
Versions: 1 2 3 4 5 6 7 8 9 10 11 12 13 14 15 16 17 18 19 20 21 22 23 24 25 26 27 28 29 30 31 32 33 34 35 36 37 38 39 40 41 42 43 44 45 46 47 48 49 50
000
ASUS43 KBIS 242031
RWRND
NORTH DAKOTA REGIONAL WEATHER ROUNDUP
NATIONAL WEATHER SERVICE EASTERN NORTH DAKOTA/GRAND FORKS ND
300 PM CDT THU MAY 24 2018

  NOTE: "FAIR" INDICATES FEW OR NO CLOUDS BELOW 12,000 FEET WITH NO
  SIGNIFICANT WEATHER AND/OR OBSTRUCTIONS TO VISIBILITY.

NDZ001>003-009>011-017-242100-
...NORTHWEST NORTH DAKOTA...

CITY           SKY/WX    TMP DP  RH WIND       PRES   REMARKS
WILLISTON      PTSUNNY   72  58  61 SW12      29.77S
MINOT          FAIR      86  48  26 SW13G20   29.70F
MINOT AFB      FAIR      86  50  28 SW16      29.67F
$$

NDZ018>021-031>035-040>046-242100-
...SOUTHWEST NORTH DAKOTA...

CITY           SKY/WX    TMP DP  RH WIND       PRES   REMARKS
BISMARCK       FAIR      85  54  34 W13G25    29.77F
DICKINSON      FAIR      78  51  38 W21G28    29.81S
GARRISON         N/A     81  51  35 W15G24    29.73F
HETTINGER      FAIR      78  52  40 W17G31    29.87S
$$

NDZ004>008-012>016-024-026-027-054-242100-
...NORTHEAST NORTH DAKOTA...

CITY           SKY/WX    TMP DP  RH WIND       PRES   REMARKS
GRAND FORKS    PTSUNNY   87  58  37 SW14      29.74F
GRAND FORKS AF FAIR      86  57  36 S15       29.74F
DEVILS LAKE    FAIR      85  57  38 SE16G23   29.74F
$$

NDZ022-023-025-028>030-036>039-047>053-242100-
...SOUTHEAST NORTH DAKOTA...

CITY           SKY/WX    TMP DP  RH WIND       PRES   REMARKS
JAMESTOWN      FAIR      85  58  39 S13       29.76F
FARGO          FAIR      88  57  34 S18G29    29.79F
WAHPETON       FAIR      88  50  27 SW14G21   29.81F
$$




USA.gov is the U.S. government's official web portal to all federal, state and local government web resources and services.